Hourly Weather Bandar Seri Begawan

Today, 24 September, Thursday

Time Temperature Precipitation Wind Pressure Humidity
00:00 +26°C° 0 mm 2 mps 757 mmHg 92%
01:00 +26°C° 0 mm 2 mps 756 mmHg 92%
02:00 +25°C° 0 mm 2 mps 756 mmHg 91%
03:00 +25°C° 0 mm 1 mps 756 mmHg 91%
04:00 +25°C° 0 mm 1 mps 756 mmHg 91%
05:00 +25°C° 0 mm 1 mps 756 mmHg 91%
06:00 +26°C° 0.1 mm 1 mps 756 mmHg 89%
07:00 +26°C° 0.1 mm 1 mps 756 mmHg 88%
08:00 +27°C° 0 mm 1 mps 756 mmHg 85%
09:00 +29°C° 0 mm 1 mps 756 mmHg 75%
10:00 +31°C° 0 mm 1 mps 756 mmHg 66%
11:00 +33°C° 0 mm 1 mps 756 mmHg 57%
12:00 +34°C° 0 mm 2 mps 755 mmHg 58%
13:00 +34°C° 0 mm 2 mps 755 mmHg 59%
14:00 +34°C° 0 mm 3 mps 755 mmHg 62%
15:00 +33°C° 0 mm 3 mps 754 mmHg 66%
16:00 +31°C° 0 mm 2 mps 754 mmHg 70%
17:00 +30°C° 0 mm 2 mps 754 mmHg 74%
18:00 +29°C° 0.1 mm 1 mps 755 mmHg 76%
19:00 +29°C° 0.1 mm 1 mps 755 mmHg 78%
20:00 +28°C° 0 mm 1 mps 756 mmHg 81%
21:00 +26°C° 0.1 mm 0 mps 756 mmHg 83%
22:00 +26°C° 0.1 mm 0 mps 756 mmHg 84%
23:00 +25°C° 0.1 mm 0 mps 757 mmHg 85%

Tomorrow, 25 September, Friday

Time Temperature Precipitation Wind Pressure Humidity
00:00 +25°C° 0 mm 0 mps 756 mmHg 86%
01:00 +27°C° 0 mm 1 mps 756 mmHg 88%
02:00 +26°C° 0 mm 1 mps 756 mmHg 89%
03:00 +26°C° 0.1 mm 1 mps 755 mmHg 90%
04:00 +26°C° 0.1 mm 1 mps 755 mmHg 91%
05:00 +26°C° 0.1 mm 1 mps 755 mmHg 92%
06:00 +27°C° 0.2 mm 1 mps 755 mmHg 88%
07:00 +27°C° 0.2 mm 2 mps 756 mmHg 85%
08:00 +28°C° 0.2 mm 2 mps 756 mmHg 82%
09:00 +30°C° 0 mm 1 mps 756 mmHg 73%
10:00 +32°C° 0 mm 1 mps 756 mmHg 64%
11:00 +34°C° 0 mm 1 mps 756 mmHg 55%
12:00 +34°C° 0 mm 1 mps 755 mmHg 55%
13:00 +35°C° 0 mm 2 mps 755 mmHg 54%
14:00 +35°C° 0 mm 2 mps 754 mmHg 54%
15:00 +34°C° 0.3 mm 2 mps 754 mmHg 59%
16:00 +32°C° 0.3 mm 2 mps 754 mmHg 64%
17:00 +31°C° 0.3 mm 2 mps 753 mmHg 69%
18:00 +30°C° 0.1 mm 2 mps 754 mmHg 73%
19:00 +29°C° 0.1 mm 1 mps 755 mmHg 77%
20:00 +28°C° 0.1 mm 1 mps 755 mmHg 81%
21:00 +27°C° 0.3 mm 1 mps 755 mmHg 83%
22:00 +27°C° 0.3 mm 1 mps 756 mmHg 85%
23:00 +27°C° 0.3 mm 1 mps 756 mmHg 87%

Day after tomorrow, 26 September, Saturday

Time Temperature Precipitation Wind Pressure Humidity
00:00 +27°C° 0.2 mm 1 mps 756 mmHg 87%
01:00 +27°C° 0.2 mm 1 mps 755 mmHg 87%
02:00 +26°C° 0.2 mm 1 mps 755 mmHg 88%
03:00 +26°C° 0 mm 1 mps 755 mmHg 88%
04:00 +26°C° 0 mm 1 mps 755 mmHg 88%
05:00 +26°C° 0 mm 2 mps 755 mmHg 89%
06:00 +27°C° 0 mm 2 mps 755 mmHg 86%
07:00 +28°C° 0 mm 2 mps 755 mmHg 83%
08:00 +28°C° 0 mm 2 mps 756 mmHg 80%
09:00 +30°C° 0 mm 2 mps 755 mmHg 71%
10:00 +32°C° 0 mm 2 mps 755 mmHg 62%
11:00 +35°C° 0 mm 2 mps 755 mmHg 52%
12:00 +35°C° 0.1 mm 2 mps 754 mmHg 53%
13:00 +35°C° 0.1 mm 3 mps 754 mmHg 53%
14:00 +36°C° 0.1 mm 3 mps 753 mmHg 54%
15:00 +34°C° 0.9 mm 3 mps 753 mmHg 62%
16:00 +33°C° 0.9 mm 3 mps 753 mmHg 70%
17:00 +30°C° 0.9 mm 3 mps 753 mmHg 79%
18:00 +29°C° 0.5 mm 3 mps 753 mmHg 81%
19:00 +28°C° 0.5 mm 2 mps 754 mmHg 83%
20:00 +28°C° 0.5 mm 2 mps 755 mmHg 85%
21:00 +27°C° 0.6 mm 2 mps 755 mmHg 86%
22:00 +27°C° 0.6 mm 2 mps 755 mmHg 87%
23:00 +27°C° 0.6 mm 2 mps 756 mmHg 88%

27 September, Sunday

Time Temperature Precipitation Wind Pressure Humidity
00:00 +27°C° 0.2 mm 2 mps 755 mmHg 89%
01:00 +26°C° 0.2 mm 2 mps 755 mmHg 89%
02:00 +26°C° 0.2 mm 2 mps 755 mmHg 90%
03:00 +26°C° 0.1 mm 2 mps 755 mmHg 90%
04:00 +26°C° 0.1 mm 2 mps 754 mmHg 90%
05:00 +26°C° 0.1 mm 3 mps 754 mmHg 90%
06:00 +27°C° 0 mm 2 mps 755 mmHg 87%
07:00 +27°C° 0 mm 2 mps 755 mmHg 83%
08:00 +28°C° 0 mm 2 mps 756 mmHg 80%
09:00 +30°C° 0 mm 2 mps 756 mmHg 71%
10:00 +32°C° 0 mm 2 mps 756 mmHg 63%
11:00 +35°C° 0 mm 2 mps 755 mmHg 54%
12:00 +35°C° 0.3 mm 2 mps 755 mmHg 58%
13:00 +34°C° 0.3 mm 3 mps 754 mmHg 62%
14:00 +34°C° 0.3 mm 3 mps 753 mmHg 66%
15:00 +31°C° 1.6 mm 3 mps 753 mmHg 72%
16:00 +30°C° 1.6 mm 3 mps 753 mmHg 79%
17:00 +29°C° 1.6 mm 3 mps 753 mmHg 85%
18:00 +29°C° 0.6 mm 3 mps 754 mmHg 86%
19:00 +28°C° 0.6 mm 3 mps 754 mmHg 88%
20:00 +27°C° 0.6 mm 3 mps 755 mmHg 89%
21:00 +27°C° 0.3 mm 2 mps 755 mmHg 90%
22:00 +27°C° 0.3 mm 2 mps 756 mmHg 91%
23:00 +27°C° 0.3 mm 2 mps 756 mmHg 91%

28 September, Monday

Time Temperature Precipitation Wind Pressure Humidity
00:00 +26°C° 0.5 mm 2 mps 756 mmHg 92%
01:00 +26°C° 0.5 mm 2 mps 755 mmHg 93%
02:00 +26°C° 0.5 mm 2 mps 755 mmHg 94%
03:00 +26°C° 0.3 mm 2 mps 755 mmHg 94%
04:00 +26°C° 0.3 mm 2 mps 754 mmHg 93%
05:00 +26°C° 0.3 mm 2 mps 754 mmHg 93%
06:00 +26°C° 0 mm 2 mps 755 mmHg 91%
07:00 +27°C° 0 mm 2 mps 755 mmHg 88%
08:00 +28°C° 0 mm 2 mps 756 mmHg 86%
09:00 +29°C° 0 mm 2 mps 756 mmHg 77%
10:00 +31°C° 0 mm 2 mps 756 mmHg 67%
11:00 +33°C° 0 mm 1 mps 756 mmHg 58%
12:00 +34°C° 0.4 mm 2 mps 755 mmHg 64%
13:00 +33°C° 0.4 mm 3 mps 754 mmHg 71%
14:00 +33°C° 0.4 mm 3 mps 753 mmHg 77%
15:00 +31°C° 2.5 mm 3 mps 753 mmHg 81%
16:00 +30°C° 2.5 mm 3 mps 753 mmHg 85%
17:00 +29°C° 2.5 mm 4 mps 753 mmHg 89%
18:00 +28°C° 4.1 mm 3 mps 754 mmHg 91%
19:00 +27°C° 4.1 mm 3 mps 754 mmHg 93%
20:00 +27°C° 4.1 mm 3 mps 755 mmHg 95%
21:00 +26°C° 2.2 mm 3 mps 755 mmHg 95%
22:00 +26°C° 2.2 mm 3 mps 756 mmHg 96%
23:00 +26°C° 2.2 mm 3 mps 756 mmHg 96%

29 September, Tuesday

Time Temperature Precipitation Wind Pressure Humidity
00:00 +26°C° 0.7 mm 3 mps 756 mmHg 96%
01:00 +26°C° 0.7 mm 3 mps 755 mmHg 96%
02:00 +26°C° 0.7 mm 3 mps 755 mmHg 96%
03:00 +26°C° 1.5 mm 3 mps 755 mmHg 95%
04:00 +26°C° 1.5 mm 3 mps 755 mmHg 95%
05:00 +25°C° 1.5 mm 3 mps 754 mmHg 95%
06:00 +26°C° 1 mm 4 mps 755 mmHg 94%
07:00 +26°C° 1 mm 4 mps 755 mmHg 93%
08:00 +26°C° 1 mm 4 mps 756 mmHg 93%
09:00 +28°C° 0 mm 4 mps 756 mmHg 86%
10:00 +29°C° 0 mm 4 mps 756 mmHg 79%
11:00 +30°C° 0 mm 4 mps 756 mmHg 72%
12:00 +30°C° 0.6 mm 4 mps 755 mmHg 76%
13:00 +30°C° 0.6 mm 4 mps 754 mmHg 80%
14:00 +29°C° 0.6 mm 4 mps 754 mmHg 84%
15:00 +29°C° 1.2 mm 3 mps 754 mmHg 86%
16:00 +29°C° 1.2 mm 3 mps 754 mmHg 87%
17:00 +28°C° 1.2 mm 3 mps 754 mmHg 89%
18:00 +27°C° 0.7 mm 3 mps 754 mmHg 90%
19:00 +27°C° 0.7 mm 2 mps 755 mmHg 92%
20:00 +26°C° 0.7 mm 2 mps 755 mmHg 93%
21:00 +26°C° 0 mm 2 mps 755 mmHg 93%
22:00 +26°C° 0 mm 2 mps 756 mmHg 93%
23:00 +26°C° 0 mm 2 mps 756 mmHg 92%
Show more